Weather in Natchez

United States     31°33′38″N   91°24′21″W
temp.,
°C
wind,
m/s
gust,
m/s
humid.,
%
clouds,
%
prec.,
mm/h
press.,
hPa
HPBL,
m
23 may, mon
mon2301:00+19n4896100 3.0 1018460
04:00+19n3697100 0.0 1017307
07:00+19nne2596100 0.0 1017262
10:00+21nne2386100 0.0 1019593
13:00+23nne337690 0.1 1017680
16:00+27ene2362100 0.0 10151228
19:00+25ene2680100 0.3 1015202
22:00+21ene279514 0.1 1014165
24 may, tue
tue2401:00+20e29973 0.1 1014227
04:00+19ese279928 0.1 1013193
07:00+20ese3109840 0.9 1013297
10:00+26sse597748 0.4 10121004
13:00+29sse5116884 3.1 10121541
16:00+34s7123798 0.1 10092422
19:00+29s510565 0.1 10101422
22:00+25s412725 0.0 1011763
25 may, wed
wed2501:00+23se312892 0.0 1011617
04:00+22sse4139425 0.0 1011689
07:00+23sse4129174 0.0 1012820
10:00+27s597770 2.3 10131131
13:00+27ssw4781100 9.7 10121058
16:00+26w238389 7.1 1010217
19:00+22nw3896100 13.1 1011492
22:00+19e2598100 11.9 1013223
26 may, thu
thu2601:00+20se3999100 24.6 1012376
04:00+18sse3698100 19.5 1011295
07:00+19sse2898100 20.9 1011377
10:00+22sw4893100 0.4 1012756
13:00+27w58480 0.5 10111795
16:00+29w593936 0.0 10092787
19:00+24wnw38600 0.0 1009340
22:00+19wnw311750 0.0 1012296
27 may, fri
fri2701:00+16w23830 0.0 101243
04:00+16w22890 0.0 101248
07:00+16wsw26890 0.0 1013190
10:00+22w46630 0.0 1014971
13:00+26w46485 0.0 10131764
16:00+29w464182 0.0 10112548
19:00+24wsw136568 0.0 101066
22:00+20wnw23710 0.0 101159